Flag for Bulgaria Weather past 2 weeks in Plovdiv, Bulgaria

Now
70 °F

Overcast.


Feels Like: 70 °F
Forecast: 52 / 73 °F
Wind: 12 mph from West

Location: Plovdiv Airport

Current Time: May 28, 2015 at 5:40:19 PM

Latest Report: May 28, 2015 at 5:00 PM


Visibility: N/A

Pressure: 29.83 "Hg

Humidity: 43%

Dew point: 46 °F

Location of PlovdivLocation

Historic Weather in Plovdiv — Graph

°F

Plovdiv temperature yesterday

Maximum temperature yesterday: 77 °F (at 1:30 PM)
Minimum temperature yesterday: 61 °F (at 12:00 AM)
Average temperature yesterday: 67 °F

Past Weeks' High & Low Weather Summary

 TemperatureHumidityPressure
High84 °F (May 21, 4:00 PM)100% (May 15, 6:30 AM)30.09 "Hg (May 15, 6:30 AM)
Low48 °F (May 14, 6:30 AM)20% (May 21, 3:30 PM)29.68 "Hg (May 24, 6:00 PM)
Average68 °F67%29.88 "Hg
* Reported May 13 4:00 PM — May 28 4:30 PM, Plovdiv, Weather by CustomWeather, © 2015

Note: Actual official high and low records may vary slightly from our data, if they occured in-between our weather recording intervals... More about our weather records

Advertising

Plovdiv weather history for previous 24 hours

 ConditionsComfort  
Time TempWeatherWind HumidityBarometerVisibility
4:30 PM
Thu, May 28
68 °FPartly sunny.13 mph43%29.83 "HgN/A
4:00 PM70 °FPartly sunny.15 mph43%29.83 "HgN/A
3:30 PM68 °FPartly sunny.17 mph43%29.83 "HgN/A
3:00 PM68 °FBroken clouds.16 mph43%29.83 "HgN/A
2:30 PM68 °FPartly sunny.20 mph43%29.83 "HgN/A
2:00 PM68 °FPartly sunny.21 mph43%29.83 "HgN/A
1:30 PM68 °FScattered clouds.20 mph46%29.83 "HgN/A
1:00 PM66 °FPartly sunny.23 mph46%29.83 "HgN/A
12:30 PM68 °FScattered clouds.24 mph43%29.83 "HgN/A
12:00 PM66 °FScattered clouds.25 mph49%29.86 "HgN/A
11:30 AM64 °FPassing clouds.25 mph46%29.86 "HgN/A
11:00 AM64 °FPartly sunny.25 mph46%29.86 "HgN/A
10:30 AM64 °FMild.24 mph46%29.86 "HgN/A
10:00 AM64 °FMild.23 mph49%29.86 "HgN/A
9:30 AM63 °FMild.25 mph45%29.83 "HgN/A
9:00 AM61 °FScattered clouds.22 mph52%29.83 "HgN/A
8:30 AM61 °FRefreshingly cool.22 mph52%29.83 "HgN/A
8:00 AM59 °FRefreshingly cool.23 mph51%29.83 "HgN/A
7:30 AM59 °FRefreshingly cool.23 mph51%29.83 "HgN/A
7:00 AM59 °FRefreshingly cool.16 mph55%29.83 "HgN/A
6:30 AM57 °FRefreshingly cool.17 mph59%29.83 "HgN/A
6:00 AM57 °FCool.22 mph63%29.83 "HgN/A
5:30 AM57 °FCool.22 mph63%29.83 "HgN/A
5:00 AM57 °FCool.24 mph63%29.83 "HgN/A
4:30 AM59 °FRefreshingly cool.22 mph59%29.83 "HgN/A
4:00 AM59 °FRefreshingly cool.21 mph59%29.83 "HgN/A
3:30 AM59 °FCool.21 mph63%29.83 "HgN/A
3:00 AM59 °FCool.21 mph63%29.83 "HgN/A
2:30 AM59 °FCool.20 mph63%29.83 "HgN/A
2:00 AM59 °FCool.18 mph63%29.83 "HgN/A
1:30 AM59 °FCool.17 mph68%29.83 "HgN/A
1:00 AM59 °FCool.18 mph68%29.80 "HgN/A
12:30 AM59 °FCool.20 mph72%29.80 "HgN/A
12:00 AM59 °FPassing clouds.20 mph72%29.80 "HgN/A
11:30 PM
Wed, May 27
61 °FPartly cloudy.20 mph72%29.80 "HgN/A
11:00 PM61 °FMostly cloudy.18 mph72%29.80 "HgN/A
10:30 PM63 °FOvercast.14 mph73%29.80 "HgN/A
10:00 PM61 °FSprinkles. Mostly cloudy.10 mph83%29.77 "HgN/A
9:30 PM63 °FSprinkles. Mostly cloudy.13 mph83%29.77 "HgN/A
9:00 PM63 °FRain showers. More clouds than sun.12 mph83%29.74 "HgN/A
8:30 PM63 °FRain showers. Mostly cloudy.20 mph88%29.74 "HgN/A
8:00 PM64 °FSprinkles. Overcast.10 mph78%29.71 "HgN/A
7:30 PM63 °FSprinkles. Mostly cloudy.14 mph83%29.71 "HgN/A
7:00 PM70 °FOvercast.12 mph60%29.68 "HgN/A
6:30 PM72 °FMore clouds than sun.3 mph57%29.68 "HgN/A
6:00 PM72 °FPartly sunny.2 mph53%29.68 "HgN/A
5:30 PM72 °FPassing clouds.6 mph53%29.68 "HgN/A
5:00 PM70 °FSprinkles. More clouds than sun.6 mph57%29.68 "HgN/A
Weather by CustomWeather, © 2015

See weather overviewHow to use our weather pages